Regional Weather Roundup
Issued by NWS

Home | Current Version | Previous Version | Text Only | Print | Product List | Glossary Off
Versions: 1 2 3 4 5 6 7 8 9 10 11 12 13 14 15 16 17 18 19 20 21 22 23 24 25 26 27 28 29 30 31 32 33 34 35 36 37 38 39 40 41 42 43 44 45 46 47 48 49 50

407
ASUS45 KCYS 270710
RWRWY

WYOMING REGIONAL WEATHER ROUNDUP
NATIONAL WEATHER SERVICE CHEYENNE WY
100 AM MDT TUE JUN 27 2017

NOTE:  "FAIR" INDICATES FEW OR NO CLOUDS BELOW 12,000 FEET
WITH NO SIGNIFICANT WEATHER AND/OR OBSTRUCTIONS TO VISIBILITY.

WYZ001-270800-
YELLOWSTONE NATIONAL PARK

CITY           SKY/WX    TMP DP  RH WIND       PRES   REMARKS
LK YELLOWSTONE   N/A     59  40  49 VRB3      30.16F
W YELLOWSTONE  NOT AVBL

$$
WYZ002>013-054>058-071-098>099-270800-
NORTHERN WYOMING

CITY           SKY/WX    TMP DP  RH WIND       PRES   REMARKS
JACKSON        CLOUDY    66  39  37 E7        30.05F
CODY           FAIR      71  35  26 S8        29.90F
GREYBULL       FAIR      74  27  17 CALM      29.79S
WORLAND        FAIR      64  41  42 CALM      29.81F
SHERIDAN       FAIR      57  47  69 S8        29.79F
BUFFALO        FAIR      64  40  41 S5        29.89F
GILLETTE       FAIR      68  41  37 S17G28    29.89F
NEWCASTLE      FAIR      66  34  30 SE21G28   30.00F

$$
WYZ014>020-022>026-101>103-270800-
CENTRAL WYOMING

CITY           SKY/WX    TMP DP  RH WIND       PRES   REMARKS
BIG PINEY      MOCLDY    58  40  51 E6        30.11F
PINEDALE       PTSUNNY   52  43  71 W3        30.13S
DUBOIS         FAIR      59  34  38 NW16      30.10S
LANDER         FAIR      76  33  21 SW17      29.96F
RIVERTON       FAIR      69  32  25 W10       29.94F
CASPER         FAIR      72  41  32 SE7G18    29.93F
DOUGLAS        FAIR      64  48  56 SE21G29   29.99F

$$
WYZ021-027>030-104>119-270800-
SOUTHERN WYOMING

CITY           SKY/WX    TMP DP  RH WIND       PRES   REMARKS
EVANSTON       FAIR      66  37  34 SE9       30.10F
KEMMERER         N/A     68  32  26 CALM      30.12F
FORT BRIDGER   FAIR      69  34  27 SE8       30.14F
ROCK SPRINGS   FAIR      64  29  26 W9        30.11R
DIXON          FAIR      60  32  35 E3        30.13S
RAWLINS        FAIR      67  29  24 VRB5      30.08F
SARATOGA       FAIR      59  30  33 SE10      30.13S
LARAMIE        FAIR      58  51  78 SE23G29   30.16F
CHEYENNE       FAIR      58  54  86 S15       30.14F
TORRINGTON     FAIR      65  55  70 SE15      30.03F
PINE BLUFFS    FAIR      61  55  82 S16G24    30.10F

$$




USA.gov is the U.S. government's official web portal to all federal, state and local government web resources and services.